Regional Weather Roundup
Issued by NWS

Home | Current Version | Previous Version | Text Only | Print | Product List | Glossary Off
Versions: 1 2 3 4 5 6 7 8 9 10 11 12 13 14 15 16 17 18 19 20 21 22 23 24 25 26 27 28

000
ASUS45 KBOI 290210
RWRID

IDAHO REGIONAL WEATHER ROUNDUP
NATIONAL WEATHER SERVICE BOISE ID
800 PM MDT THU APR 28 2016

NOTE: "FAIR" INDICATES FEW OR NO CLOUDS BELOW 12000 FEET
WITH NO SIGNIFICANT WEATHER AND/OR OBSTRUCTIONS TO VISIBILITY

IDZ012-014-290300-
SOUTHWEST IDAHO


CITY           SKY/WX    TMP DP  RH WIND       PRES   REMARKS
BOISE          CLEAR     62  30  29 NW20G30   29.81R
CALDWELL       CLEAR     63  35  35 NW13      29.83R
$$

IDZ016-017-290300-
SOUTHCENTRAL IDAHO


CITY           SKY/WX    TMP DP  RH WIND       PRES   REMARKS
BURLEY         LGT RAIN  51  39  63 N16G24    29.81R
JEROME         LGT RAIN  48  44  86 N21       29.84R
TWIN FALLS     CLOUDY    51  40  65 N17       29.83R
$$

IDZ019>023-290300-
SOUTHEAST IDAHO


CITY           SKY/WX    TMP DP  RH WIND       PRES   REMARKS
IDAHO FALLS    CLOUDY    53  28  38 N14       29.83R
POCATELLO      CLOUDY    56  30  37 NE10      29.81S
REXBURG        CLEAR     52  26  36 N10       29.83R
$$

IDZ006-010-011-018-031-032-290300-
CENTRAL IDAHO MOUNTAINS


CITY           SKY/WX    TMP DP  RH WIND       PRES   REMARKS
MCCALL         CLOUDY    45  32  60 NW10      29.90S
HAILEY         MOCLDY    45  39  81 SE8       29.87S
STANLEY          N/A     45  25  45 NW7       29.87F
SALMON         CLOUDY    45  36  70 E8        29.93S
CHALLIS        CLOUDY    46  32  58 N6        29.88S
$$

IDZ002-004-006-007-026-290300-
NORTHERN IDAHO


CITY           SKY/WX    TMP DP  RH WIND       PRES   REMARKS
LEWISTON       CLOUDY    56  49  77 E5        29.93S
LOWELL           N/A     55  44  66 CALM      29.93R
COEUR D`ALENE  CLOUDY    57  34  41 E13       29.93R
MULLAN PASS    LGT SNOW  33  31  92 CALM      29.97F FOG
$$




USA.gov is the U.S. government's official web portal to all federal, state and local government web resources and services.